{"data":{"norad_id":68466,"epoch":"2026-09-19T23:16:52.752000Z","epoch_age_seconds":114917,"freshness":"FRESH","line1":"1 68466U 26067BC  26262.97005500  .00005181  00000+0  25283-3 0  9992","line2":"2 68466  97.4588 219.8573 0007903 105.7143 254.4964 15.18697960 26169","mean_motion":15.1869796,"eccentricity":0.0007903,"inclination_deg":97.4588,"raan_deg":219.8573,"arg_perigee_deg":105.7143,"mean_anomaly_deg":254.4964,"bstar":0.00025283,"rev_number":2616,"period_min":94.81806375772,"perigee_km":504.33113986528,"apogee_km":515.21817302947,"semimajor_km":6887.9116564474,"source":"CELESTRAK","updated_at":"2026-09-20T09:00:24.239391Z"}}